Location: Observatoire
(46.1952°N, 5.3391°E)
Time: 23:40:19
(UTC+01:00)

Courier 1B Rocket - Pass Details

Date: 24 February 2026
Orbit: 920 x 1201 km, 28.2° (Epoch: 11 March)

Event Time Altitude Azimuth Distance (km) Brightness Sun altitude
Rises 20:14:38 0° 241° (WSW) 3,550 8.8 -20.9°
Reaches altitude 10° 20:18:56 10° 214° (SW) 2,600 7.5 -21.7°
Maximum altitude 20:21:25 13° 190° (S) 2,422 7.1 -22.1°
Enters shadow 20:23:47 10° 167° (SSE) 2,594 7.0 -22.5°
Drops below altitude 10° 20:23:56 10° 166° (SSE) 2,616 - -22.5°
Sets 20:28:17 0° 138° (SE) 3,592 - -23.3°
